Location: Caseificio
(44.7500°N, 11.0500°E)
Time: 23:21:41
(UTC+00:00)

MOS 1 Rocket - Pass Details

Date: 26 May 2022
Orbit: 615 x 828 km, 97.5° (Epoch: 26 June)

Event Time Altitude Azimuth Distance (km) Brightness Sun altitude
Exits shadow 02:23:24 16° 231° (SW) 1,636 4.6 -11.1°
Maximum altitude 02:25:24 21° 267° (W) 1,388 4.4 -10.9°
Drops below altitude 10° 02:28:42 10° 318° (NW) 1,990 5.7 -10.5°
Sets 02:31:22 0° 334° (NNW) 2,915 6.8 -10.1°
